time_stamp(utc),avg(mph),gust(mph),direction(deg),12m_air_temp(f),sonic_u(cm/s),sonic_v(cm/s),sonic_w(cm/s),pressure,2m_air_temp(f),pyranometer(W/m^2)
"2019-12-05 00:02:33+00",0.0,0.0,,39.2,-587,126,66,1000.44,39,0
"2019-12-05 00:07:33+00",0.0,0.0,,38.9,-737,125,50,1000.45,38.8,0
"2019-12-05 00:12:33+00",0.0,0.0,,38.8,-658,179,55,1000.46,38.7,0
"2019-12-05 00:17:33+00",0.0,0.0,,38.6,-675,194,46,1000.5,38.5,0
"2019-12-05 00:22:33+00",0.0,0.0,,38.4,-715,195,49,1000.55,38.4,0
"2019-12-05 00:27:33+00",0.0,0.0,,38.2,-575,121,46,1000.6,38.2,0
"2019-12-05 00:32:33+00",0.0,0.0,,38,-670,203,44,1000.62,38,0
"2019-12-05 00:37:33+00",0.0,0.0,,37.8,-581,190,34,1000.7,37.9,0
"2019-12-05 00:42:33+00",0.0,0.0,,37.7,-483,170,34,1000.63,37.6,0
"2019-12-05 00:47:33+00",0.0,0.0,,37.6,-490,308,42,1000.66,37.5,0
"2019-12-05 00:52:33+00",0.0,0.0,,37.4,-639,191,46,1000.66,37.3,0
"2019-12-05 00:57:33+00",0.0,0.0,,37.3,-439,196,22,1000.49,37.2,0
"2019-12-05 01:02:33+00",0.0,0.0,,37.4,-423,138,39,1000.56,37.2,0
"2019-12-05 01:07:33+00",0.0,0.0,,37.3,-389,228,25,1000.43,37.1,0
"2019-12-05 01:12:33+00",0.0,0.0,,37.3,-384,175,27,1000.42,37.1,0
"2019-12-05 01:17:33+00",0.0,0.0,,37.3,-394,253,45,1000.51,37,0
"2019-12-05 01:22:33+00",0.0,0.0,,37.1,-409,217,44,1000.47,37,0
"2019-12-05 01:27:33+00",0.0,0.0,,37.1,-463,181,36,1000.56,36.9,0
"2019-12-05 01:32:33+00",0.0,0.0,,37.1,-455,210,19,1000.44,36.9,0
"2019-12-05 01:37:33+00",0.0,0.0,,37.1,-521,235,38,1000.38,36.9,0
"2019-12-05 01:42:33+00",0.0,0.0,,37.2,-542,203,25,1000.41,36.9,0
"2019-12-05 01:47:33+00",0.0,0.0,,37.3,-442,178,71,1000.41,37,0
"2019-12-05 01:52:33+00",0.0,0.0,,37.4,-477,180,60,1000.43,37.1,0
"2019-12-05 01:57:33+00",0.0,0.0,,37.5,-550,182,33,1000.53,37.1,0
"2019-12-05 02:02:33+00",0.0,0.0,,37.4,-469,122,43,1000.45,37.1,0
"2019-12-05 02:07:33+00",0.0,0.0,,37.4,-476,131,34,1000.4,37.1,0
"2019-12-05 02:12:33+00",0.0,0.0,,37.4,-451,92,40,1000.43,37.1,0
"2019-12-05 02:17:33+00",0.0,0.0,,37.4,-550,76,18,1000.45,37.1,0
"2019-12-05 02:22:33+00",0.0,0.0,,37.3,-507,64,37,1000.46,37,0
"2019-12-05 02:27:33+00",0.0,0.0,,37.3,-503,46,26,1000.46,36.9,0
"2019-12-05 02:32:33+00",0.0,0.0,,37.2,-485,38,26,1000.33,36.7,0
"2019-12-05 02:37:33+00",0.0,0.0,,37.2,-495,25,28,1000.44,36.7,0
"2019-12-05 02:42:33+00",0.0,0.0,,37.3,-533,74,43,1000.36,36.6,0
"2019-12-05 02:47:33+00",0.0,0.0,,37.3,-568,33,26,1000.41,36.6,0
"2019-12-05 02:52:33+00",0.0,0.0,,37.3,-600,20,36,1000.29,36.6,0
"2019-12-05 02:57:33+00",0.0,0.0,,37.2,-548,21,43,1000.4,36.6,0
"2019-12-05 03:02:33+00",0.0,0.0,,37.2,-601,91,47,1000.3,36.6,0
"2019-12-05 03:07:33+00",0.0,0.0,,37.3,-591,95,37,1000.27,36.6,0
"2019-12-05 03:12:33+00",0.0,0.0,,37.4,-577,97,52,1000.3,36.6,0
"2019-12-05 03:17:33+00",0.0,0.0,,37.4,-638,94,36,1000.37,36.7,0
"2019-12-05 03:22:33+00",0.0,0.0,,37.3,-601,52,28,1000.43,36.6,0
"2019-12-05 03:27:33+00",0.0,0.0,,37.2,-559,90,37,1000.37,36.6,0
"2019-12-05 03:32:33+00",0.0,0.0,,37.4,-611,144,44,1000.24,36.6,0
"2019-12-05 03:37:33+00",0.0,0.0,,37.5,-672,143,51,1000.26,36.6,0
"2019-12-05 03:42:33+00",0.0,0.0,,37.6,-595,180,45,1000.19,36.7,0
"2019-12-05 03:47:33+00",0.0,0.0,,37.6,-630,233,43,1000.16,36.7,0
"2019-12-05 03:52:33+00",0.0,0.0,,37.6,-547,199,40,1000.14,36.7,0
"2019-12-05 03:57:33+00",0.0,0.0,,37.6,-553,240,27,1000.12,36.7,0
"2019-12-05 04:02:33+00",0.0,0.0,,37.5,-574,202,53,1000.16,36.6,0
"2019-12-05 04:07:33+00",0.0,0.0,,37.6,-592,212,45,1000.26,36.6,0
"2019-12-05 04:12:33+00",0.0,0.0,,37.6,-635,196,40,1000.18,36.7,0
"2019-12-05 04:17:33+00",0.0,0.0,,37.4,-576,212,46,1000.14,36.7,0
"2019-12-05 04:22:33+00",0.0,0.0,,37.4,-583,146,34,1000.18,36.6,0
"2019-12-05 04:27:33+00",0.0,0.0,,37.3,-556,178,34,1000.15,36.6,0
"2019-12-05 04:32:33+00",0.0,0.0,,37.2,-489,143,38,1000.18,36.6,0
"2019-12-05 04:37:33+00",0.0,0.0,,37.2,-495,172,36,1000.09,36.4,0
"2019-12-05 04:42:33+00",0.0,0.0,,37.2,-530,194,30,1000.12,36.4,0
"2019-12-05 04:47:33+00",0.0,0.0,,37.2,-581,253,24,1000.09,36.3,0
"2019-12-05 04:52:33+00",0.0,0.0,,37.2,-583,205,40,1000.07,36.3,0
"2019-12-05 04:57:33+00",0.0,0.0,,37.2,-609,207,42,1000.01,36.4,0
"2019-12-05 05:12:33+00",0.0,0.0,,37.3,-1193,1153,-473,999.88,36.3,0
"2019-12-05 05:17:33+00",0.0,0.0,,37.4,-528,187,44,999.88,36.4,0
"2019-12-05 05:22:33+00",0.0,0.0,,37.3,-579,207,52,999.78,36.4,0
"2019-12-05 05:27:33+00",0.0,0.0,,37.5,-558,229,43,999.73,36.4,0
"2019-12-05 05:32:33+00",0.0,0.0,,37.7,-682,236,37,999.79,36.5,0
"2019-12-05 05:37:33+00",0.0,0.0,,37.7,-684,137,32,999.81,36.6,0
"2019-12-05 05:42:33+00",0.0,0.0,,37,-600,-2,18,999.86,36.6,0
"2019-12-05 05:47:33+00",0.0,0.0,,36.5,-511,-25,25,999.91,36.4,0
"2019-12-05 05:52:33+00",0.0,0.0,,36.6,-637,-72,19,999.93,36.2,0
"2019-12-05 05:57:33+00",0.0,0.0,,36.9,-707,-8,45,999.99,36.1,0
"2019-12-05 06:02:33+00",0.0,0.0,,37,-707,-71,20,1000.01,36.2,0
"2019-12-05 06:07:33+00",0.0,0.0,,37.1,-634,-29,40,1000.05,36.2,0
"2019-12-05 06:32:33+00",0.0,0.0,,37.1,1618,-3797,2115,1000.26,36.3,0
"2019-12-05 06:37:33+00",0.0,0.0,,37.1,1776,-4168,2356,1000.27,36.3,0
"2019-12-05 06:42:33+00",0.0,0.0,,37.1,1522,-3658,2066,1000.39,36.3,0
"2019-12-05 06:47:33+00",0.0,0.0,,37.1,1429,-3441,1943,1000.51,36.3,0
"2019-12-05 06:52:33+00",0.0,0.0,,37.1,1823,-4209,2330,1000.62,36.3,0
"2019-12-05 06:57:33+00",0.0,0.0,,37.2,1574,-3754,2091,1000.74,36.3,0
"2019-12-05 07:02:33+00",0.0,0.0,,37.2,1487,-3621,1990,1000.77,36.3,0
"2019-12-05 07:07:33+00",0.0,0.0,,37.2,1666,-4085,2218,1000.92,36.3,0
"2019-12-05 07:12:33+00",0.0,0.0,,37.4,1522,-3640,2023,1000.93,36.3,0
"2019-12-05 07:17:33+00",0.0,0.0,,37.5,1837,-4364,2414,1001.05,36.4,0
"2019-12-05 07:22:33+00",0.0,0.0,,37.7,17287,0,0,1001.04,36.5,-0.1
"2019-12-05 07:27:33+00",0.0,0.0,,37.9,1189,-3342,1911,1001.09,36.6,0
"2019-12-05 07:32:33+00",0.0,0.0,,37.7,-228,-990,638,1001.03,36.8,0
"2019-12-05 07:37:33+00",0.0,0.0,,37.7,161,-1590,1000,1001.01,36.8,0
"2019-12-05 07:42:33+00",0.0,0.0,,37.9,-2040,2215,-1114,1000.94,36.9,0
"2019-12-05 07:47:33+00",0.0,0.0,,38.1,-1946,2174,-1056,1001.05,37.1,0
"2019-12-05 07:52:33+00",0.0,0.0,,38.1,-2191,2539,-1227,1000.98,37.3,0
"2019-12-05 07:57:33+00",0.0,0.0,,38,-2785,3458,-1751,1001.11,37.3,0
"2019-12-05 08:02:33+00",0.0,0.0,,38.2,-2083,2372,-1162,1001.15,37.4,0
"2019-12-05 08:07:33+00",0.0,0.0,,38.4,-2296,2666,-1307,1001.15,37.5,0
"2019-12-05 08:12:33+00",0.0,0.0,,38.6,-2604,3136,-1540,1001.17,37.6,0
"2019-12-05 08:17:33+00",0.0,0.0,,38.9,-2275,2607,-1254,1001.16,37.9,0
"2019-12-05 08:22:33+00",0.0,0.0,,38.9,-2326,2836,-1299,1001.23,38.1,0
"2019-12-05 08:27:33+00",0.0,0.0,,38.8,-2026,2409,-1072,1001.3,38.1,0
"2019-12-05 08:32:33+00",0.0,0.0,,38.7,-2472,3086,-1521,1001.44,38.1,0
"2019-12-05 08:37:33+00",0.0,0.0,,38.5,-2122,2503,-1151,1001.47,38,0
"2019-12-05 08:42:33+00",0.0,0.0,,38.2,-1811,2038,-952,1001.69,37.9,0
"2019-12-05 08:47:33+00",0.0,0.0,,38.1,-1397,1472,-652,1001.71,37.8,0
"2019-12-05 08:52:33+00",0.0,0.0,,37.9,-1804,2161,-985,1001.79,37.6,0
"2019-12-05 08:57:33+00",0.0,0.0,,37.9,-1726,1981,-906,1001.89,37.5,0
"2019-12-05 09:02:33+00",0.0,0.0,,38.2,-1649,1781,-830,1001.94,37.5,0
"2019-12-05 09:07:33+00",0.0,0.0,,38.2,-1360,1236,-582,1001.93,37.7,0
"2019-12-05 09:12:33+00",0.0,0.0,,37.9,-1556,1498,-747,1002.05,37.6,0
"2019-12-05 09:17:33+00",0.0,0.0,,37.5,-2063,2314,-1159,1002.1,37.4,0
"2019-12-05 09:22:33+00",0.0,0.0,,37.5,-1058,858,-387,1002.21,37.3,0
"2019-12-05 09:27:33+00",0.0,0.0,,37.6,-1459,1450,-665,1002.3,37.2,0
"2019-12-05 09:32:33+00",0.0,0.0,,37.9,-1695,1773,-846,1002.4,37.3,0
"2019-12-05 09:37:33+00",0.0,0.0,,38,-1669,1727,-795,1002.48,37.4,0
"2019-12-05 09:42:33+00",0.0,0.0,,37.9,-1719,1768,-852,1002.55,37.4,0
"2019-12-05 09:47:33+00",0.0,0.0,,38,-1388,1344,-608,1002.69,37.5,0
"2019-12-05 09:52:33+00",0.0,0.0,,37.9,-2093,2345,-1165,1002.8,37.5,0
"2019-12-05 09:57:33+00",0.0,0.0,,37.9,-1446,1346,-629,1002.85,37.5,0
"2019-12-05 10:02:33+00",0.0,0.0,,37.8,-1393,1222,-600,1002.96,37.5,0
"2019-12-05 10:07:33+00",0.0,0.0,,37.7,-1977,2127,-1061,1002.97,37.4,0
"2019-12-05 10:12:33+00",0.0,0.0,,37.8,-1966,2163,-1037,1003.12,37.4,0
"2019-12-05 10:17:33+00",0.0,0.0,,37.9,-1580,1656,-734,1003.18,37.5,0
"2019-12-05 10:22:33+00",0.0,0.0,,37.8,-1442,1427,-645,1003.36,37.5,0
"2019-12-05 10:27:33+00",0.0,0.0,,37.9,-1562,1578,-715,1003.46,37.5,0
"2019-12-05 10:32:33+00",0.0,0.0,,37.9,-1948,2117,-1008,1003.54,37.5,0
"2019-12-05 10:37:33+00",0.0,0.0,,37.9,-1649,1634,-768,1003.7,37.5,0
"2019-12-05 10:42:33+00",0.0,0.0,,37.9,-1298,1181,-520,1003.79,37.5,0
"2019-12-05 10:47:33+00",0.0,0.0,,37.9,-1768,1933,-887,1003.92,37.5,0
"2019-12-05 10:52:33+00",0.0,0.0,,38,-1397,1332,-607,1003.92,37.5,0
"2019-12-05 10:57:33+00",0.0,0.0,,38.1,-1487,1471,-654,1004.1,37.6,0
"2019-12-05 11:02:33+00",0.0,0.0,,38.2,-2143,2392,-1191,1004.19,37.6,0
"2019-12-05 11:07:33+00",0.0,0.0,,38.1,-1463,1325,-659,1004.23,37.6,0
"2019-12-05 11:12:33+00",0.0,0.0,,38.2,-1228,1002,-474,1004.4,37.6,0
"2019-12-05 11:17:33+00",0.0,0.0,,38.2,-1542,1424,-691,1004.44,37.6,0
"2019-12-05 11:22:33+00",0.0,0.0,,38.3,-1567,1471,-684,1004.59,37.6,0
"2019-12-05 11:27:33+00",0.0,0.0,,38.3,-1506,1436,-685,1004.77,37.6,0
"2019-12-05 11:32:33+00",0.0,0.0,,38.2,-1194,1023,-460,1004.86,37.6,0
"2019-12-05 11:37:33+00",0.0,0.0,,38.1,-1833,1983,-935,1004.91,37.5,0
"2019-12-05 11:42:33+00",0.0,0.0,,38,-2106,2515,-1151,1005.06,37.4,0
"2019-12-05 11:47:33+00",0.0,0.0,,38,-2108,2568,-1175,1005.13,37.3,0
"2019-12-05 11:52:33+00",0.0,0.0,,38,-1733,1947,-889,1005.16,37.3,0
"2019-12-05 11:57:33+00",0.0,0.0,,38,-1820,2085,-922,1005.34,37.3,0
"2019-12-05 12:02:33+00",0.0,0.0,,38,-2449,3080,-1479,1005.46,37.3,0
"2019-12-05 12:07:33+00",0.0,0.0,,38,-2064,2467,-1132,1005.53,37.4,0
"2019-12-05 12:12:33+00",0.0,0.0,,37.9,-1918,2241,-1033,1005.61,37.4,0
"2019-12-05 12:17:33+00",0.0,0.0,,38,-2342,2905,-1333,1005.7,37.4,0
"2019-12-05 12:22:33+00",0.0,0.0,,38,-1354,1474,-591,1005.71,37.5,0
"2019-12-05 12:27:33+00",0.0,0.0,,38.1,-1738,2008,-898,1005.78,37.6,0
"2019-12-05 12:32:33+00",0.0,0.0,,38.2,-1428,1519,-655,1005.88,37.7,0
"2019-12-05 12:37:33+00",0.0,0.0,,38.4,-1228,1189,-498,1006.05,37.8,0
"2019-12-05 12:42:33+00",0.0,0.0,,38.6,-2052,2328,-1088,1006.22,38,0
"2019-12-05 12:47:33+00",0.0,0.0,,38.7,-1944,2070,-1001,1006.37,38.1,0
"2019-12-05 12:52:33+00",0.0,0.0,,38.8,-1793,1831,-871,1006.52,38.2,0
"2019-12-05 12:57:33+00",0.0,0.0,,38.8,-1455,1314,-602,1006.46,38.4,3.8
"2019-12-05 13:02:33+00",0.0,0.0,,38.8,-1790,2001,-908,1006.41,38.5,10.2
"2019-12-05 13:07:33+00",0.0,0.0,,38.9,-1979,2446,-1076,1006.4,38.5,9.5
"2019-12-05 13:12:33+00",0.0,0.0,,38.9,-2212,2729,-1190,1006.65,38.5,1.1
"2019-12-05 13:17:33+00",0.0,0.0,,38.8,-2764,3620,-1696,1006.7,38.4,1.4
"2019-12-05 13:22:33+00",0.0,0.0,,38.9,-2211,2714,-1212,1006.77,38.6,126
"2019-12-05 13:27:33+00",0.0,0.0,,39,-1946,2253,-965,1006.97,39.2,138.1
"2019-12-05 13:32:33+00",0.0,0.0,,39.2,-2276,2674,-1206,1007.04,39.7,141.6
"2019-12-05 13:37:33+00",0.0,0.0,,39.4,-2358,2850,-1264,1007.07,40,146.2
"2019-12-05 13:42:33+00",0.0,0.0,,39.7,-2458,2913,-1315,1007.14,40.3,161.8
"2019-12-05 13:47:33+00",0.0,0.0,,39.7,-2833,3576,-1622,1007.19,40.5,165.9
"2019-12-05 13:52:33+00",0.0,0.0,,39.9,-2007,2495,-1022,1007.4,40.7,183.6
"2019-12-05 13:57:33+00",0.0,0.0,,39.9,-1314,1359,-485,1007.49,40.9,193.9
"2019-12-05 14:02:33+00",0.0,0.0,,40,-2188,2593,-1107,1007.62,40.8,219.5
"2019-12-05 14:07:33+00",0.0,0.0,,40.1,-2921,3724,-1699,1007.62,41.1,192.9
"2019-12-05 14:12:33+00",0.0,0.0,,40.3,-1765,2053,-820,1007.84,41.2,200.4
"2019-12-05 14:17:33+00",0.0,0.0,,40.2,-2385,2864,-1161,1007.84,41,140.9
"2019-12-05 14:22:33+00",0.0,0.0,,40.1,-2665,3512,-1512,1007.98,40.8,121.4
"2019-12-05 14:27:33+00",0.0,0.0,,40.1,-2569,3487,-1495,1008.01,40.6,115.6
"2019-12-05 14:32:33+00",0.0,0.0,,40.2,-2319,2910,-1276,1008.11,40.5,108.8
"2019-12-05 14:37:33+00",0.0,0.0,,40.2,-2579,3418,-1429,1008.26,40.6,133.7
"2019-12-05 14:52:33+00",0.0,0.0,,40.4,-2370,2906,-1275,1008.41,41,251.4
"2019-12-05 14:57:33+00",0.0,0.0,,40.4,-2600,3277,-1507,1008.42,41,148.3
"2019-12-05 15:02:33+00",0.0,0.0,,40.4,-2381,2919,-1281,1008.4,41,238.2
"2019-12-05 15:07:33+00",0.0,0.0,,40.6,-2514,3142,-1375,1008.35,41.3,247.1
"2019-12-05 15:12:33+00",0.0,0.0,,40.7,-2439,3050,-1291,1008.44,41.6,249.9
"2019-12-05 15:17:33+00",0.0,0.0,,41,-2683,3396,-1559,1008.61,42,251.8
"2019-12-05 15:22:33+00",0.0,0.0,,41.2,-2161,2791,-1191,1008.68,42.2,253.6
"2019-12-05 15:27:33+00",0.0,0.0,,41.3,-2094,2711,-1113,1008.64,42.3,257.7
"2019-12-05 15:32:33+00",0.0,0.0,,41.4,-1856,2139,-877,1008.68,42.4,259.6
"2019-12-05 15:37:33+00",0.0,0.0,,41.5,-3040,4141,-1908,1008.7,42.6,262.1
"2019-12-05 15:42:33+00",0.0,0.0,,41.7,-2334,2890,-1149,1008.59,42.7,265.5
"2019-12-05 15:47:33+00",0.0,0.0,,41.8,-1844,2316,-964,1008.62,42.7,268.3
"2019-12-05 15:52:33+00",0.0,0.0,,41.9,-2575,3433,-1328,1008.61,43,247
"2019-12-05 15:57:33+00",0.0,0.0,,41.8,-2096,2517,-1082,1008.58,43,238.9
"2019-12-05 16:02:33+00",0.0,0.0,,42,16701,2740,0,1008.62,43.1,-0.1
"2019-12-05 16:07:33+00",0.0,0.0,,42.3,-1661,1880,-790,1008.67,43.4,274.7
"2019-12-05 16:12:33+00",0.0,0.0,,42.3,-2608,3338,-1498,1008.66,43.6,281.1
"2019-12-05 16:17:33+00",0.0,0.0,,42.3,-2229,2738,-1157,1008.72,43.6,304.8
"2019-12-05 16:22:33+00",0.0,0.0,,42.1,-2172,2707,-1173,1008.79,43.2,229.4
"2019-12-05 16:27:33+00",0.0,0.0,,42.1,-2326,3077,-1335,1008.88,42.9,249.8
"2019-12-05 16:32:33+00",0.0,0.0,,41.9,-1574,1970,-747,1008.9,42.5,105.2
"2019-12-05 16:37:33+00",0.0,0.0,,41.9,-2046,2531,-1090,1008.86,42.6,106.3
"2019-12-05 16:42:33+00",0.0,0.0,,42,-2578,3342,-1550,1008.93,42.5,68.7
"2019-12-05 16:47:33+00",0.0,0.0,,42.1,-2377,2977,-1337,1008.95,42.7,64.9
"2019-12-05 16:52:33+00",0.0,0.0,,41.9,-1872,2620,-1105,1009.04,42.3,69.1
"2019-12-05 16:57:33+00",0.0,0.0,,42,-2509,3612,-1565,1009.14,42.2,57.8
"2019-12-05 17:02:33+00",0.0,0.0,,42.1,-2197,2878,-1250,1009.11,42.6,102.8
"2019-12-05 17:07:33+00",0.0,0.0,,42.4,-2067,2554,-1081,1009.1,43.2,65.4
"2019-12-05 17:22:33+00",0.0,0.0,,41.7,-2288,3068,-1304,1009.27,41.8,47.5
"2019-12-05 17:27:33+00",0.0,0.0,,41.8,-2301,2982,-1287,1009.31,41.9,120.3
"2019-12-05 17:32:33+00",0.0,0.0,,41.8,-2991,4278,-1916,1009.32,41.8,17.9
"2019-12-05 17:37:33+00",0.0,0.0,,41.7,-1935,2383,-1072,1009.22,41.6,11.6
"2019-12-05 17:42:33+00",0.0,0.0,,41.9,-2801,4042,-1724,1009.28,41.7,15.5
"2019-12-05 17:47:33+00",0.0,0.0,,41.8,-2228,2932,-1255,1009.41,41.6,6.9
"2019-12-05 17:52:33+00",0.0,0.0,,41.7,-2194,2929,-1178,1009.29,41.5,84.8
"2019-12-05 17:57:33+00",0.0,0.0,,42.1,-2472,3083,-1385,1009.35,42.6,292.4
"2019-12-05 18:02:33+00",0.0,0.0,,42.4,-1659,2004,-790,1009.28,43.4,258.6
"2019-12-05 18:07:33+00",0.0,0.0,,42.7,-1664,2000,-846,1009.28,43.8,264.6
"2019-12-05 18:12:33+00",0.0,0.0,,42.6,16778,702,0,1009.19,43.7,-0.1
"2019-12-05 18:17:33+00",0.0,0.0,,42.4,16755,640,0,1009.27,42.8,-0.1
"2019-12-05 18:32:33+00",0.0,0.0,,42.3,-2049,3008,-1294,1009.79,42.2,39.6
"2019-12-05 18:37:33+00",0.0,0.0,,42.3,-1737,2497,-913,1009.75,42.2,31.4
"2019-12-05 18:42:33+00",0.0,0.0,,42.4,-2455,3675,-1566,1009.79,42.2,36
"2019-12-05 18:47:33+00",0.0,0.0,,42.4,-2437,3505,-1538,1009.82,42.2,36.2
"2019-12-05 18:52:33+00",0.0,0.0,,42.3,-1665,2212,-918,1009.85,42.3,52.1
"2019-12-05 18:57:33+00",0.0,0.0,,42.4,-1234,1552,-583,1009.93,42.4,62.3
"2019-12-05 19:02:33+00",0.0,0.0,,42.6,-1591,1933,-772,1009.97,42.5,71.4
"2019-12-05 19:07:33+00",0.0,0.0,,42.8,-2036,2574,-1127,1010.07,43,76.6
"2019-12-05 19:22:33+00",0.0,0.0,,42.8,-2442,3513,-1511,1010.29,43.2,138.8
"2019-12-05 19:27:33+00",0.0,0.0,,42.7,-2414,3250,-1397,1010.37,43,55.9
"2019-12-05 19:32:33+00",0.0,0.0,,42.7,-2713,3404,-1510,1010.45,42.9,62.9
"2019-12-05 19:37:33+00",0.0,0.0,,42.6,-2512,3210,-1415,1010.7,42.9,51.4
"2019-12-05 19:42:33+00",0.0,0.0,,42.7,-2668,3495,-1589,1010.75,43.1,132.3
"2019-12-05 19:47:33+00",0.0,0.0,,42.7,-2204,2894,-1261,1010.82,43.2,39.5
"2019-12-05 19:52:33+00",0.0,0.0,,42.8,-2604,3479,-1495,1010.84,43.2,102.5
"2019-12-05 19:57:33+00",0.0,0.0,,42.9,-1969,2558,-1056,1010.96,43.6,147.3
"2019-12-05 20:02:33+00",0.0,0.0,,42.7,-2435,3115,-1397,1011.1,43.2,27.9
"2019-12-05 20:07:33+00",0.0,0.0,,42.7,-2429,3215,-1362,1011.18,42.8,31.6
"2019-12-05 20:12:33+00",0.0,0.0,,42.7,-2086,2814,-1175,1011.29,42.9,96.5
"2019-12-05 20:17:33+00",0.0,0.0,,42.8,-1664,2117,-844,1011.4,43.1,43.2
"2019-12-05 20:22:33+00",0.0,0.0,,42.6,-1078,1075,-342,1011.53,42.9,39.1
"2019-12-05 20:27:33+00",0.0,0.0,,42.5,-1858,2364,-964,1011.57,42.7,12.3
"2019-12-05 20:32:33+00",0.0,0.0,,42.5,-1491,1805,-698,1011.79,42.4,55.7
"2019-12-05 20:37:33+00",0.0,0.0,,42.7,-2642,3666,-1651,1011.84,42.8,48.2
"2019-12-05 20:42:33+00",0.0,0.0,,42.5,-1083,1148,-405,1011.94,42.6,14.4
"2019-12-05 20:47:33+00",0.0,0.0,,42.5,-1839,2472,-1029,1011.97,42.4,3.2
"2019-12-05 20:52:33+00",0.0,0.0,,42.5,-1373,1710,-653,1012.19,42.2,0
"2019-12-05 20:57:33+00",0.0,0.0,,42.6,-1394,1641,-670,1012.19,42.1,0
"2019-12-05 21:02:33+00",0.0,0.0,,42.3,-1096,1171,-392,1012.4,41.9,0
"2019-12-05 21:07:33+00",0.0,0.0,,42.2,-1130,1245,-456,1012.31,41.8,0
"2019-12-05 21:12:33+00",0.0,0.0,,42.3,-1607,1928,-779,1012.43,41.7,0
"2019-12-05 21:17:33+00",0.0,0.0,,42.3,-1422,1706,-662,1012.67,41.6,0
"2019-12-05 21:22:33+00",0.0,0.0,,42.3,-1757,2404,-981,1012.65,41.6,0
"2019-12-05 21:27:33+00",0.0,0.0,,42.2,-1964,2821,-1156,1012.83,41.6,0
"2019-12-05 21:32:33+00",0.0,0.0,,42.1,-1244,1420,-556,1012.99,41.5,0
"2019-12-05 21:37:33+00",0.0,0.0,,42.1,-939,942,-296,1013.14,41.4,0
"2019-12-05 21:42:33+00",0.0,0.0,,41.9,-899,767,-261,1013.23,41.4,0
"2019-12-05 21:47:33+00",0.0,0.0,,41.7,-735,461,-115,1013.35,41.3,0
"2019-12-05 21:52:33+00",0.0,0.0,,41.6,-666,358,-54,1013.43,41.1,0
"2019-12-05 21:57:33+00",0.0,0.0,,41.5,-684,422,-86,1013.48,41,0
"2019-12-05 22:02:33+00",0.0,0.0,,41.8,-1219,1228,-475,1013.58,41,0
"2019-12-05 22:07:33+00",0.0,0.0,,42,-1902,2314,-978,1013.61,41.2,0
"2019-12-05 22:12:33+00",0.0,0.0,,42.1,-1878,2273,-972,1013.61,41.3,0
"2019-12-05 22:17:33+00",0.0,0.0,,42.2,-1813,2118,-877,1013.84,41.4,0
"2019-12-05 22:22:33+00",0.0,0.0,,42,-1261,1363,-532,1014.1,41.4,0
"2019-12-05 22:27:33+00",0.0,0.0,,42,-1764,2021,-848,1014.2,41.4,0
"2019-12-05 22:32:33+00",0.0,0.0,,41.9,-1467,1583,-654,1014.29,41.3,0
"2019-12-05 22:37:33+00",0.0,0.0,,41.9,-1639,1881,-792,1014.44,41.3,0
"2019-12-05 22:42:33+00",0.0,0.0,,42,-2021,2482,-1044,1014.48,41.3,0
"2019-12-05 22:47:33+00",0.0,0.0,,41.8,-748,588,-129,1014.54,41.2,0
"2019-12-05 22:52:33+00",0.0,0.0,,41.7,-702,464,-91,1014.66,41.2,0
"2019-12-05 22:57:33+00",0.0,0.0,,41.6,-595,315,-16,1014.74,41.1,0
"2019-12-05 23:02:33+00",0.0,0.0,,41.8,-916,646,-208,1014.83,41,0
"2019-12-05 23:07:33+00",0.0,0.0,,41.8,-824,588,-155,1014.92,41.1,0
"2019-12-05 23:12:33+00",0.0,0.0,,41.8,-1022,851,-307,1014.98,41.1,0
"2019-12-05 23:17:33+00",0.0,0.0,,42.1,-1699,1921,-797,1015.19,41.3,0
"2019-12-05 23:22:33+00",0.0,0.0,,41.9,-1216,1243,-461,1015.18,41.3,0
"2019-12-05 23:27:33+00",0.0,0.0,,41.8,-964,849,-257,1015.31,41.2,0
"2019-12-05 23:32:33+00",0.0,0.0,,41.7,-767,593,-133,1015.39,41.1,0
"2019-12-05 23:37:33+00",0.0,0.0,,41.8,-846,755,-206,1015.47,41.1,0
"2019-12-05 23:42:33+00",0.0,0.0,,41.9,-1497,1673,-652,1015.49,41.1,0
"2019-12-05 23:47:33+00",0.0,0.0,,41.9,-1145,1221,-425,1015.59,41.2,0
"2019-12-05 23:52:33+00",0.0,0.0,,41.7,-624,466,-52,1015.63,41.1,0
"2019-12-05 23:57:33+00",0.0,0.0,,41.6,-662,531,-91,1015.62,41,0
